Vertical_Velocity
6 1 4 1 3 -0 6 3 3 1 -0 -3 -0 -3 2 -1 -1 1 1 -1 0 -1 -1 -2 -2 -2 -4 -0 1 1 -2 1 -2 1 -0 -2 -4 1 -1 -2 1 1 0 -2 -1 -2 0 -1 3 -3 -1 -1 1 -1
7 2 3 7 3 19 1 -1 -1 -1 3 -2 2 2 4 5 4 6 3 5 4 0 -3 -2 -2 1 -2 -4 -1 -2 1 -0 -2 -5 -7 -1 -3 -1 -1 2 -6 -4 3 1 -4 -3 -3 -0 1 -1 -0 1 1 -0
8 -6 19 -0 26 6 2 -0 4 3 5 2 2 0 0 0 -1 3 3 4 2 -0 -1 0 0 1 -1 0 -1 -2 -1 1 0 0 -2 -1 0 -4 -0 0 -2 1 1 -2 -3 2 -3 -2 -0 -1 1 0 -0 -1
-2 2 4 15 4 13 2 7 8 4 4 -2 8 -2 -1 1 2 5 6 7 5 5 -1 1 1 0 -1 -1 -1 -1 -0 2 1 1 -0 -3 -0 -1 -2 5 2 -2 0 0 -1 -2 -3 -4 -0 0 -1 1 1 -2
-3 -1 10 -3 2 10 -7 0 12 10 4 -1 10 1 -5 -0 -2 3 6 4 5 5 3 0 2 1 -2 -1 -1 -0 1 0 -3 -0 -1 -5 1 -4 -2 -4 -1 -0 -1 -3 -2 -0 -1 -4 0 0 -0 0 -1 1
3 -0 3 -3 -10 2 -0 -10 16 2 10 -1 4 20 3 -3 3 8 2 6 4 6 2 2 2 -1 -0 -2 -0 2 -1 -2 -2 1 1 -3 -1 -3 -2 -3 0 -2 -2 -3 -2 -3 -1 -1 1 0 1 2 0 0
5 2 3 -2 -4 -5 1 -8 36 -2 2 -1 -0 -6 8 -7 8 6 6 2 6 4 2 0 0 -0 -2 -2 -4 3 -1 -1 -3 -0 -1 -3 -2 -0 -2 -3 1 -1 -2 -2 -2 -2 -4 -2 -0 -1 -1 1 -0 0
6 7 3 -2 -0 -2 1 2 7 1 5 -2 3 -3 4 -3 5 1 3 2 5 3 1 -0 1 -1 2 -3 -1 1 -3 -2 -2 -3 -4 -4 -1 -2 -3 0 1 -1 -1 -2 -2 -0 -0 -2 -1 -0 -0 -1 1 0
5 4 2 1 9 -2 3 -5 7 4 8 1 -2 -8 15 -2 11 2 7 1 1 5 2 2 -2 1 4 -5 -2 2 -2 -2 1 2 -1 -5 -2 -6 -3 -3 -1 -1 -2 -1 -1 -1 1 1 1 -1 -1 -1 -1 1
6 4 5 3 0 9 9 -1 5 1 7 1 -1 -1 10 -0 8 6 3 1 1 4 -2 2 -0 3 -2 -4 -1 -0 -3 -1 -3 0 1 -5 -4 -4 -2 -2 -1 0 -1 -1 -4 -3 -3 1 2 2 1 1 -0 -0
3 7 0 7 5 3 -4 5 3 -2 6 -5 19 11 7 1 3 10 2 1 2 3 3 -2 0 1 -3 -0 -2 0 -6 1 -2 3 0 -4 -5 -4 -4 -2 -1 -1 -0 -1 -2 0 0 -1 -1 -2 0 0 0 1
2 4 4 0 1 5 6 -3 -0 -3 16 17 12 4 -5 1 6 2 3 1 5 7 -1 -2 5 0 0 -3 -0 2 -1 -4 -5 4 -4 -4 -6 -6 -4 -2 -1 -1 -0 -1 -2 -0 1 0 0 1 0 -0 -0 -1
2 2 -0 3 1 -0 6 15 18 7 3 -0 5 7 7 4 -5 4 6 2 5 0 1 1 3 4 -3 -1 -1 -2 -3 -2 3 -1 -5 -2 -6 -3 -3 -2 -1 -1 -1 -1 -1 -1 -0 0 -1 -0 1 1 -0 -1
-2 2 8 -3 9 -9 12 22 20 12 2 -6 6 9 2 1 3 2 1 2 1 1 -1 -2 0 3 -4 -2 -1 0 -1 -3 -3 -3 -5 -4 -1 -5 -2 -1 -1 -1 -1 -1 -1 -1 -1 -1 -0 -0 0 0 0 1
0 4 8 8 2 11 10 14 8 -1 2 6 2 2 -1 2 8 2 -0 -2 0 2 -4 -1 3 1 -3 -1 2 -1 -3 2 -4 -7 -6 -6 -4 -5 -1 -1 -2 -1 -1 -1 -1 -1 -1 -1 -1 -0 -1 -0 1 2
5 -0 2 10 5 1 15 9 7 8 4 -0 0 -1 4 3 2 -1 2 1 -0 -2 -1 0 1 -0 -4 -0 1 -3 3 -4 -4 -4 -6 -3 -3 -3 -2 -1 -1 -1 -1 -0 -1 -1 -1 -1 -1 0 -1 -1 -2 -1
11 7 1 1 9 6 2 3 5 -2 -0 -1 3 5 3 -1 3 0 -0 0 -0 -0 -2 -1 -2 -5 -1 -3 -2 -2 -3 -3 -6 -5 -1 -5 -4 -1 -2 -1 -1 -1 -1 -2 -1 -1 -1 -1 -1 -1 -0 0 1 -0
-3 2 14 11 -3 -2 4 2 -3 -1 -1 3 2 2 2 1 1 1 -0 -0 2 -2 -1 -2 -2 -3 -0 -1 -6 1 -6 -6 -6 1 -3 -4 -3 -2 -1 -1 -1 -1 -1 -1 -1 0 -1 -1 -0 0 0 0 0 1
1 -0 4 3 16 6 5 1 -1 4 4 7 1 1 2 3 -2 -0 -1 -0 -0 -1 -3 -1 0 -4 -1 -3 -4 -4 -4 -4 0 -3 -3 -3 -2 -1 -1 -1 0 -0 -1 -1 0 -0 0 -1 -1 -0 -0 0 -0 -1
7 22 15 -1 2 2 -1 5 6 10 7 2 -1 0 -1 -2 -1 -0 1 0 -3 1 1 -1 -2 -2 -3 -3 -3 -4 -3 -0 -1 -2 -2 -1 -2 -1 -1 -1 0 1 -0 0 0 -1 -1 1 -0 -1 -1 -1 -1 0
10 15 19 14 17 14 10 10 5 1 -3 2 1 1 1 -1 -0 0 0 -0 1 0 -2 -3 -1 1 -1 -3 -4 -3 -2 -2 -3 -2 -1 -3 -3 -2 -0 1 -0 0 -0 -0 -1 1 1 -1 -1 -0 -0 0 -0 -0
18 13 11 7 6 -0 -1 1 0 2 2 2 -1 1 0 -1 -0 1 0 0 -2 -2 -1 -1 -1 -2 -2 0 -2 -5 -3 -2 -1 -1 -3 -4 -2 -1 -1 0 -1 -1 -0 -0 -2 -1 -0 -1 -0 -0 -0 -0 -0 -0
9 7 9 10 2 -2 6 4 4 4 1 1 -0 1 1 -1 0 -1 -1 -1 -1 -2 -0 -2 -2 2 1 -2 -4 -2 -3 -3 -2 -2 -3 -3 -2 -0 -1 0 -0 -1 -2 -0 -1 -1 0 -0 0 0 0 -1 1 1
2 5 2 -1 -0 5 5 4 2 1 -0 0 0 -1 -1 -1 -1 -0 -1 0 0 -0 -1 -0 3 1 -2 -5 -3 -2 -1 -1 -1 -2 -1 -1 -1 -1 -0 -1 -0 -0 -1 -1 -1 -0 -0 -0 -0 -0 0 0 -0 0
1 -1 1 5 5 4 1 2 2 -2 -0 -1 -1 1 -0 -2 -1 0 1 1 -0 1 2 2 -1 -4 -5 -3 -2 -2 -2 -2 -2 -3 -2 -1 -1 -2 0 0 0 -1 -1 -0 -0 -0 -0 -0 -0 0 -0 -0 -0 -0
-0 -0 2 4 4 -2 -2 -1 2 2 1 -0 0 -1 -0 1 1 2 0 1 1 0 -1 -1 -3 -4 -1 -1 -1 -1 -1 -3 -1 -1 -2 -1 -1 -0 -0 -0 -0 -0 -0 -0 -0 0 0 0 0 1 0 -0 -1 -0
-1 2 5 7 5 2 1 1 0 0 0 1 1 -0 0 1 1 1 0 -0 -1 -0 -0 -2 -3 -1 -1 -1 -1 -1 -1 -2 -1 -0 -2 -1 -1 -1 -1 -0 0 0 -0 -0 0 -0 -0 -0 -0 -0 0 -0 -0 -1
8 7 4 -1 -1 0 1 0 -1 -2 0 1 2 1 1 -0 -0 -1 -2 -1 1 0 -2 -2 -1 -1 -2 -1 -1 -1 -2 -2 -1 -1 -1 -0 0 -0 0 0 0 0 1 0 0 1 1 -0 0 -0 0 1 -0 -1
2 -1 -1 -1 -0 -0 0 0 1 1 1 1 1 -0 -1 -0 -1 -1 -0 2 -0 -2 -1 -1 -1 -2 -1 -0 -0 -1 -1 -1 -0 -1 -0 -0 1 0 -0 -0 0 0 -0 -0 0 1 1 -1 1 1 -0 1 1 -1
-1 -1 -0 1 1 1 0 0 1 1 1 -0 1 0 -1 0 -0 0 0 -1 -2 -1 -1 -2 -1 -2 -1 -0 -1 -2 -1 -1 -0 0 -1 -1 -0 -0 -1 -0 0 -0 0 1 0 -0 1 1 -0 2 2 1 1 0
1 1 1 1 1 0 -0 -1 -0 0 1 1 1 0 1 1 1 -1 -1 -1 -1 -1 -1 -0 -0 -0 0 -0 -1 -2 -2 -1 0 0 0 0 -0 -1 -0 1 1 -0 -0 0 0 0 0 1 0 1 1 0 -0 -0
3 1 0 -1 -2 -1 1 1 0 1 1 2 1 0 1 1 -1 -1 0 -0 -1 -1 -1 -1 -1 -0 0 -1 -2 -2 -2 -1 -1 -0 -1 -1 -1 -2 -2 -0 -1 -1 -1 -0 -1 -1 -1 -1 -1 -0 0 -0 -1 -0
-0 1 1 1 1 2 2 2 1 0 1 -0 -0 1 -1 -1 -0 0 -0 -1 -1 -0 0 -1 -0 0 -1 -2 -3 -2 -2 -2 -2 -2 -3 -3 -2 -2 -2 -0 -0 -1 -2 -0 -0 -1 -1 -0 0 1 1 1 -0 -0
Height
5675 5681 5687 5692 5698 5702 5705 5708 5711 5713 5714 5714 5715 5714 5713 5712 5709 5707 5704 5702 5699 5694 5691 5686 5682 5677 5673 5667 5661 5655 5648 5640 5632 5622 5614 5604 5592 5580 5567 5554 5539 5526 5512 5501 5489 5484 5480 5473 5468 5464 5460 5452 5447 5441
5659 5666 5673 5679 5685 5687 5690 5695 5698 5700 5702 5703 5703 5703 5703 5701 5700 5698 5695 5691 5688 5684 5681 5677 5672 5667 5663 5658 5651 5645 5639 5630 5622 5613 5604 5594 5582 5569 5556 5543 5528 5516 5505 5494 5484 5476 5471 5467 5463 5458 5453 5449 5444 5438
5641 5650 5657 5664 5669 5672 5679 5683 5685 5688 5690 5690 5691 5691 5691 5690 5689 5687 5683 5681 5678 5674 5669 5667 5663 5658 5653 5647 5642 5637 5630 5621 5613 5605 5595 5584 5572 5558 5547 5533 5518 5505 5494 5485 5475 5470 5465 5461 5457 5452 5448 5444 5438 5434
5622 5631 5640 5646 5653 5659 5664 5671 5674 5675 5677 5678 5680 5679 5678 5678 5677 5674 5672 5670 5667 5663 5660 5657 5652 5648 5644 5638 5633 5628 5621 5612 5604 5595 5586 5575 5562 5550 5537 5525 5509 5497 5486 5477 5469 5462 5459 5455 5452 5447 5443 5439 5434 5428
5603 5610 5619 5627 5635 5644 5650 5657 5661 5662 5663 5665 5668 5668 5668 5665 5663 5662 5660 5659 5656 5655 5650 5646 5643 5639 5634 5629 5624 5617 5611 5602 5594 5586 5577 5565 5551 5540 5527 5512 5498 5487 5477 5469 5462 5457 5454 5450 5446 5442 5438 5434 5430 5426
5583 5594 5602 5611 5620 5632 5638 5645 5648 5649 5652 5652 5655 5656 5655 5655 5653 5652 5650 5649 5646 5643 5640 5637 5633 5629 5625 5620 5614 5608 5600 5592 5585 5577 5567 5553 5542 5531 5518 5502 5489 5478 5468 5460 5457 5451 5448 5445 5442 5438 5434 5431 5427 5423
5562 5574 5585 5594 5606 5617 5626 5632 5635 5637 5640 5642 5640 5643 5644 5644 5643 5641 5641 5638 5636 5633 5630 5627 5624 5620 5615 5611 5605 5598 5590 5584 5576 5568 5556 5543 5532 5522 5506 5491 5480 5470 5460 5454 5450 5447 5443 5440 5436 5432 5429 5426 5422 5419
5544 5555 5567 5579 5590 5601 5612 5618 5623 5626 5628 5630 5633 5632 5633 5634 5632 5630 5628 5627 5625 5623 5621 5618 5615 5612 5606 5602 5596 5589 5583 5576 5567 5557 5545 5534 5522 5510 5496 5482 5471 5461 5453 5448 5445 5442 5439 5435 5432 5428 5425 5421 5418 5415
5529 5539 5551 5564 5575 5586 5596 5603 5610 5614 5617 5618 5620 5623 5622 5624 5622 5619 5617 5617 5615 5616 5612 5609 5606 5604 5598 5593 5587 5581 5574 5566 5558 5546 5535 5524 5511 5499 5485 5473 5463 5454 5448 5443 5440 5437 5434 5432 5428 5424 5420 5417 5414 5411
5517 5527 5537 5549 5562 5571 5580 5589 5597 5602 5604 5606 5612 5613 5612 5613 5611 5610 5607 5607 5606 5604 5602 5601 5598 5595 5591 5584 5579 5574 5566 5557 5546 5536 5524 5514 5501 5487 5475 5464 5455 5448 5442 5438 5435 5432 5429 5426 5424 5421 5417 5414 5411 5407
5507 5515 5527 5536 5548 5559 5569 5578 5584 5591 5595 5598 5600 5600 5601 5602 5600 5599 5598 5599 5598 5596 5594 5593 5590 5586 5581 5576 5571 5565 5556 5546 5537 5526 5516 5503 5490 5478 5465 5456 5448 5442 5437 5434 5431 5429 5426 5423 5420 5416 5413 5410 5407 5404
5498 5505 5516 5527 5539 5551 5560 5568 5576 5582 5585 5587 5586 5586 5589 5591 5590 5590 5589 5590 5589 5588 5586 5585 5582 5577 5573 5569 5563 5555 5548 5537 5526 5515 5505 5492 5481 5468 5457 5449 5442 5437 5433 5430 5427 5425 5423 5420 5417 5414 5410 5407 5403 5401
5491 5499 5509 5522 5531 5542 5550 5558 5564 5568 5569 5572 5575 5576 5579 5582 5581 5580 5581 5581 5581 5579 5578 5577 5573 5569 5565 5562 5555 5548 5538 5527 5516 5506 5495 5483 5470 5458 5449 5442 5437 5432 5428 5425 5422 5421 5419 5417 5414 5411 5407 5404 5401 5398
5484 5493 5504 5513 5522 5533 5543 5547 5551 5554 5559 5563 5567 5568 5570 5572 5572 5574 5574 5575 5574 5571 5570 5568 5565 5562 5557 5553 5547 5537 5527 5517 5506 5498 5487 5474 5460 5451 5442 5437 5432 5427 5423 5420 5418 5416 5414 5412 5410 5408 5405 5402 5398 5396
5479 5490 5498 5507 5517 5526 5535 5537 5540 5545 5548 5553 5558 5560 5563 5565 5565 5567 5568 5567 5566 5564 5562 5560 5558 5555 5551 5546 5537 5528 5516 5507 5499 5489 5476 5463 5453 5444 5437 5431 5427 5422 5419 5415 5413 5411 5409 5407 5406 5404 5401 5399 5396 5393
5474 5481 5490 5501 5510 5518 5526 5531 5534 5537 5540 5546 5550 5554 5556 5558 5559 5560 5560 5560 5559 5556 5554 5554 5551 5547 5543 5537 5529 5517 5509 5501 5491 5479 5466 5454 5444 5436 5431 5426 5422 5418 5414 5411 5408 5405 5403 5402 5400 5399 5397 5395 5393 5390
5473 5482 5490 5498 5506 5512 5519 5525 5527 5532 5536 5540 5545 5547 5550 5552 5552 5553 5553 5553 5551 5549 5548 5547 5544 5539 5534 5527 5519 5510 5502 5493 5482 5468 5455 5446 5438 5432 5426 5421 5417 5413 5410 5406 5403 5400 5398 5396 5395 5393 5392 5391 5389 5387
5471 5479 5487 5496 5502 5509 5515 5519 5524 5528 5532 5536 5539 5542 5543 5544 5545 5546 5546 5546 5545 5543 5543 5541 5537 5531 5525 5519 5511 5503 5495 5483 5470 5459 5450 5441 5433 5427 5421 5416 5411 5408 5405 5402 5399 5396 5393 5391 5389 5387 5386 5385 5383 5383
5472 5479 5486 5493 5498 5505 5511 5516 5521 5525 5527 5529 5533 5535 5536 5538 5539 5540 5540 5539 5538 5538 5536 5532 5528 5523 5518 5511 5503 5495 5484 5472 5463 5454 5444 5436 5428 5421 5415 5410 5406 5402 5400 5397 5395 5392 5389 5386 5384 5382 5380 5379 5377 5376
5467 5476 5484 5489 5496 5502 5508 5513 5516 5518 5522 5526 5528 5530 5531 5533 5534 5533 5533 5533 5533 5532 5529 5525 5521 5516 5509 5502 5494 5485 5474 5467 5458 5449 5440 5431 5423 5416 5409 5403 5399 5395 5393 5391 5390 5387 5385 5383 5380 5377 5374 5372 5371 5370
5467 5474 5481 5487 5492 5498 5503 5508 5512 5516 5518 5521 5523 5524 5526 5527 5527 5527 5527 5528 5527 5525 5523 5519 5513 5506 5501 5494 5486 5476 5469 5461 5452 5443 5434 5426 5418 5410 5403 5397 5391 5387 5385 5384 5383 5382 5380 5378 5375 5372 5369 5367 5365 5364
5469 5475 5481 5486 5493 5498 5502 5506 5510 5512 5514 5516 5518 5519 5520 5521 5521 5522 5522 5522 5520 5519 5515 5510 5504 5501 5494 5485 5477 5471 5464 5454 5445 5436 5427 5419 5411 5404 5397 5390 5384 5380 5378 5376 5376 5376 5375 5373 5370 5367 5364 5362 5360 5358
5469 5474 5479 5485 5491 5495 5498 5500 5504 5507 5509 5511 5513 5514 5515 5516 5516 5516 5517 5516 5515 5512 5507 5503 5499 5492 5486 5479 5472 5465 5457 5447 5438 5429 5421 5413 5405 5397 5390 5384 5378 5374 5371 5370 5369 5369 5368 5367 5365 5362 5359 5356 5354 5352
5468 5473 5479 5484 5487 5490 5494 5497 5500 5502 5504 5507 5508 5509 5510 5510 5511 5512 5512 5511 5508 5504 5501 5496 5490 5486 5480 5473 5465 5458 5449 5440 5431 5423 5415 5407 5399 5391 5384 5378 5372 5368 5365 5363 5363 5362 5361 5360 5358 5356 5353 5350 5348 5346
5469 5473 5477 5480 5484 5488 5491 5494 5496 5498 5500 5501 5503 5503 5505 5506 5507 5506 5505 5505 5502 5498 5494 5489 5485 5479 5473 5465 5458 5450 5441 5433 5423 5415 5408 5400 5392 5385 5378 5372 5366 5362 5359 5357 5356 5356 5355 5354 5352 5350 5347 5344 5342 5340
5466 5471 5475 5479 5482 5486 5488 5490 5492 5492 5494 5496 5498 5499 5500 5501 5501 5501 5500 5499 5496 5492 5488 5484 5478 5472 5465 5458 5451 5442 5434 5425 5416 5408 5401 5393 5385 5379 5372 5366 5360 5356 5353 5351 5350 5349 5348 5347 5346 5344 5341 5338 5336 5335
5466 5470 5474 5476 5479 5481 5483 5484 5486 5489 5490 5492 5494 5495 5496 5496 5496 5496 5495 5492 5489 5485 5481 5477 5471 5463 5457 5450 5443 5434 5426 5417 5408 5401 5393 5385 5378 5371 5365 5359 5354 5350 5347 5344 5343 5342 5341 5340 5339 5337 5335 5333 5331 5330
5465 5468 5470 5472 5474 5477 5479 5481 5483 5484 5486 5488 5490 5491 5491 5492 5492 5491 5488 5486 5482 5478 5474 5468 5462 5455 5449 5442 5435 5426 5418 5408 5400 5392 5384 5377 5370 5363 5357 5352 5348 5344 5341 5338 5337 5336 5335 5333 5332 5331 5329 5327 5325 5324
5462 5464 5467 5469 5472 5474 5476 5478 5479 5481 5483 5484 5486 5486 5487 5487 5486 5484 5482 5478 5475 5471 5466 5460 5454 5448 5441 5434 5426 5417 5408 5399 5390 5383 5375 5368 5361 5355 5349 5345 5340 5337 5335 5332 5331 5329 5328 5326 5325 5323 5322 5320 5319 5319
5460 5463 5465 5466 5469 5470 5472 5474 5475 5477 5479 5481 5482 5482 5482 5481 5480 5477 5474 5471 5467 5463 5458 5452 5446 5440 5433 5426 5417 5408 5399 5390 5381 5374 5365 5358 5352 5346 5341 5338 5335 5331 5329 5327 5325 5323 5321 5319 5317 5315 5314 5313 5313 5313
5457 5460 5462 5463 5465 5467 5469 5471 5472 5474 5475 5476 5476 5477 5476 5475 5473 5470 5467 5464 5460 5455 5449 5444 5438 5431 5424 5416 5408 5399 5390 5381 5372 5364 5355 5348 5342 5338 5335 5332 5329 5325 5323 5320 5317 5315 5313 5310 5308 5307 5306 5306 5306 5307
5455 5456 5458 5460 5462 5464 5465 5467 5468 5470 5471 5471 5471 5471 5470 5468 5466 5463 5460 5456 5451 5446 5441 5435 5429 5422 5415 5408 5400 5390 5381 5373 5364 5355 5346 5340 5336 5332 5329 5326 5323 5320 5317 5314 5311 5308 5306 5304 5302 5301 5300 5300 5301 5302
5451 5454 5456 5457 5459 5460 5462 5463 5464 5465 5466 5466 5465 5464 5462 5461 5458 5456 5452 5447 5443 5437 5432 5426 5420 5414 5407 5399 5391 5382 5374 5365 5356 5347 5340 5335 5331 5329 5325 5322 5319 5315 5311 5308 5305 5302 5300 5298 5296 5295 5295 5295 5295 5297